Location: Unspecified
(0.0000°N, 0.0000°E)
Time: 05:48:27
(UTC+00:00)

Hubble Space Telescope - Pass Details

Date: 30 November 2020
Orbit: 536 x 540 km, 28.5° (Epoch: 03 December)

Event Time Altitude Azimuth Distance (km) Brightness Sun altitude
Exits shadow 03:19:33 16° 108° (ESE) 1,450 3.6 -34.3°
Drops below altitude 10° 03:20:26 10° 111° (ESE) 1,782 4.2 -34.1°
Sets 03:22:43 0° 114° (ESE) 2,675 5.4 -33.5°
